Location: Godiavel Galaoual
(15.2485°N, 12.6604°W)
Time: 13:21:54
(UTC+00:00)

LightSail 2 - Pass Details

Date: 12 June 2020
Orbit: 691 x 722 km, 24.0° (Epoch: 06 July)

Event Time Altitude Azimuth Distance (km) Brightness Sun altitude
Rises 22:44:22 0° 291° (WNW) 3,043 9.1 -40.7°
Reaches altitude 10° 22:47:03 10° 302° (WNW) 2,126 8.2 -41.1°
Enters shadow 22:47:21 11° 304° (WNW) 2,031 8.1 -41.1°
